Powrót do katalogu

COSMOS 1383

AktywnyMilitariaPO
NORAD 13301·PAYLOAD·🇷🇺 Russia

Wystrzelony Jun 29, 1982 z Plesetsk Cosmodrome

Loading…

Następne Przeloty (najbliższe 24 godziny)

TLE

ŚwieżeSource: Space-Track

Epoka: Sep 14, 2026, 22:03 UTC

1 13301U 82066A   26257.91890200  .00000052  00000-0  42436-4 0  9991
2 13301  82.9317 308.0919 0027449  13.0824 104.4631 13.68912678207980

Śledź COSMOS 1383 w czasie rzeczywistym z AllMySat

Download on the App Store